Location: Buckeye Ditch
(40.9104°N, 122.9517°W)
Time: 11:31:12
(UTC+00:00)

Iridium 51 - Pass Details

Date: 13 April 2024
Orbit: 435 x 634 km, 86.4° (Epoch: 23 May)

Event Time Altitude Azimuth Distance (km) Brightness Sun altitude
Rises 10:48:01 0° 108° (ESE) 2,443 8.0 -28.3°
Enters shadow 11:58:09 -51° 182° (S) 10,583 10.8 -17.8°
Exits shadow 12:21:30 - 181° (S) 1,965 6.9 -13.9°
Reaches altitude 10° 12:22:25 10° 182° (S) 1,577 6.4 -13.7°
Maximum altitude 12:25:49 90° 256° (WSW) 447 3.8 -13.2°
Drops below altitude 10° 12:29:09 10° 2° (N) 1,552 7.0 -12.6°
Sets 12:31:11 0° 3° (N) 2,424 8.0 -12.2°
